QTR295 EDDN-OTHH

Flight info

Callsign QTR295
Flight time N/A
Altitude 37000
Route RODIS1G RODIS L604 RUDNO DCT LULAR T703 BEPAS DCT DITIS DCT TOVKA DCT XOMBA DCT ARCAZ DCT BULEN L744 IVGOT Q7 ARTAT UP975 ARPUT/N0496F390 UP975 LESRI P975 SIDNA UP975 PUTSI DCT VAXEN UM688 ULDUR P975 LONOS L703 HAYYA
Aircraft A35K/H-SDE2E3GHIJ3J4J5LM1ORWXY/LB1D1

Departure

Time 2026-05-05 15:25
Airport Nuremberg Airport (EDDN)

Arrival

Time N/A
Airport Hamad International Airport (OTHH)
Time Latitude Longitude Altitude Speed Heading
2026-05-05 15:00 49.49556 11.07590 1034 ft 0 kts 188°
2026-05-05 15:13 49.49559 11.07591 1032 ft 0 kts 183°
2026-05-05 15:13 49.49571 11.07591 1034 ft 2 kts 160°
2026-05-05 15:13 49.49587 11.07578 1035 ft 3 kts 128°
2026-05-05 15:13 49.49594 11.07559 1035 ft 0 kts 104°
2026-05-05 15:14 49.49594 11.07561 1035 ft 0 kts 104°
2026-05-05 15:16 49.49594 11.07566 1035 ft 1 kts 97°
2026-05-05 15:16 49.49594 11.07584 1035 ft 2 kts 89°
2026-05-05 15:16 49.49594 11.07619 1036 ft 4 kts 90°
2026-05-05 15:16 49.49593 11.07669 1036 ft 6 kts 92°
2026-05-05 15:17 49.49615 11.07733 1036 ft 7 kts 38°
2026-05-05 15:17 49.49653 11.07753 1037 ft 0 kts
2026-05-05 15:18 49.49684 11.07747 1038 ft 8 kts 348°
2026-05-05 15:18 49.49756 11.07702 1039 ft 14 kts 333°
2026-05-05 15:18 49.49766 11.07695 1039 ft 0 kts 334°
2026-05-05 15:20 49.49803 11.07667 1039 ft 11 kts 338°
2026-05-05 15:21 49.49864 11.07724 1040 ft 13 kts 78°
2026-05-05 15:21 49.49861 11.07901 1040 ft 20 kts 97°
2026-05-05 15:21 49.49837 11.08152 1039 ft 27 kts 99°
2026-05-05 15:21 49.49807 11.08464 1041 ft 32 kts 98°
2026-05-05 15:22 49.49770 11.08820 1048 ft 34 kts 99°
2026-05-05 15:22 49.49740 11.09124 1058 ft 13 kts 98°
2026-05-05 15:22 49.49727 11.09247 1060 ft 11 kts 98°
2026-05-05 15:22 49.49717 11.09373 1061 ft 12 kts 90°
2026-05-05 15:23 49.49722 11.09470 1065 ft 7 kts 87°
2026-05-05 15:23 49.49716 11.09537 1070 ft 6 kts 102°
2026-05-05 15:23 49.49701 11.09548 1070 ft 2 kts 181°
2026-05-05 15:23 49.49695 11.09526 1070 ft 4 kts 256°
2026-05-05 15:24 49.49701 11.09484 1066 ft 0 kts 281°
2026-05-05 15:24 49.49701 11.09477 1066 ft 4 kts 280°
2026-05-05 15:24 49.49744 11.09067 1056 ft 77 kts 278°
2026-05-05 15:25 49.49860 11.07885 1040 ft 143 kts 278°
2026-05-05 15:25 49.50025 11.06156 1314 ft 174 kts 278°
2026-05-05 15:25 49.50186 11.04268 2098 ft 183 kts 278°
2026-05-05 15:25 49.50381 11.02258 2850 ft 205 kts 279°
2026-05-05 15:26 49.50627 10.99872 3307 ft 243 kts 279°
2026-05-05 15:26 49.50894 10.97227 3816 ft 255 kts 278°
2026-05-05 15:26 49.51376 10.94575 4408 ft 262 kts 298°
2026-05-05 15:26 49.52668 10.92617 5068 ft 266 kts 333°
2026-05-05 15:27 49.54469 10.92041 5754 ft 269 kts
2026-05-05 15:27 49.56349 10.92207 6436 ft 272 kts
2026-05-05 15:27 49.58252 10.92409 6978 ft 275 kts
2026-05-05 15:27 49.60168 10.92558 7197 ft 276 kts
2026-05-05 15:28 49.62091 10.92662 7220 ft 277 kts
2026-05-05 15:28 49.64028 10.92741 7396 ft 280 kts
2026-05-05 15:28 49.65984 10.92845 7994 ft 282 kts
2026-05-05 15:28 49.67883 10.93585 8714 ft 284 kts 25°
2026-05-05 15:29 49.69438 10.95445 9395 ft 287 kts 51°
2026-05-05 15:29 49.70338 10.98189 10046 ft 290 kts 77°
2026-05-05 15:29 49.70411 11.01342 10433 ft 304 kts 102°
2026-05-05 15:29 49.69824 11.04560 10677 ft 321 kts 103°
2026-05-05 15:30 49.69470 11.08058 10927 ft 338 kts 96°
2026-05-05 15:30 49.69254 11.11752 11185 ft 354 kts 95°
2026-05-05 15:30 49.69055 11.15620 11438 ft 368 kts 94°
2026-05-05 15:30 49.68750 11.19602 11791 ft 378 kts 102°
2026-05-05 15:31 49.67861 11.23434 12288 ft 382 kts 116°
2026-05-05 15:31 49.66607 11.27069 12841 ft 385 kts 119°
2026-05-05 15:31 49.65294 11.30694 13365 ft 388 kts 119°
2026-05-05 15:31 49.63971 11.34347 13890 ft 391 kts 119°
2026-05-05 15:32 49.62660 11.37980 14385 ft 394 kts 119°
2026-05-05 15:32 49.61325 11.41687 14894 ft 397 kts 119°
2026-05-05 15:32 49.59978 11.45425 15389 ft 400 kts 119°
2026-05-05 15:32 49.58622 11.49190 15891 ft 403 kts 119°
2026-05-05 15:33 49.57264 11.52983 16400 ft 406 kts 118°
2026-05-05 15:33 49.56120 11.56975 16861 ft 409 kts 110°
2026-05-05 15:33 49.55157 11.61116 17336 ft 412 kts 109°
2026-05-05 15:33 49.54216 11.65294 17798 ft 415 kts 109°
2026-05-05 15:34 49.53265 11.69510 18246 ft 417 kts 109°
2026-05-05 15:34 49.52306 11.73734 18686 ft 420 kts 109°
2026-05-05 15:34 49.51336 11.77990 19133 ft 423 kts 109°
2026-05-05 15:34 49.50357 11.82269 19554 ft 425 kts 109°
2026-05-05 15:35 49.49371 11.86568 19966 ft 428 kts 109°
2026-05-05 15:35 49.48376 11.90896 20357 ft 430 kts 109°
2026-05-05 15:35 49.47373 11.95247 20741 ft 433 kts 109°
2026-05-05 15:35 49.46367 11.99629 21122 ft 436 kts 109°
2026-05-05 15:36 49.45350 12.04027 21480 ft 438 kts 110°
2026-05-05 15:36 49.44322 12.08450 21846 ft 441 kts 110°
2026-05-05 15:36 49.43287 12.12891 22234 ft 443 kts 110°
2026-05-05 15:36 49.42245 12.17354 22593 ft 445 kts 110°
2026-05-05 15:37 49.41197 12.21835 22944 ft 447 kts 110°
2026-05-05 15:37 49.40141 12.26341 23293 ft 450 kts 110°
2026-05-05 15:37 49.39078 12.30870 23631 ft 452 kts 110°
2026-05-05 15:37 49.38011 12.35412 23975 ft 454 kts 110°
2026-05-05 15:38 49.36930 12.39999 24293 ft 456 kts 110°
2026-05-05 15:38 49.35855 12.44560 24614 ft 459 kts 110°
2026-05-05 15:38 49.34937 12.49259 24901 ft 461 kts 103°
2026-05-05 15:38 49.34438 12.54122 25203 ft 463 kts 94°
2026-05-05 15:39 49.34448 12.59073 25514 ft 465 kts 84°
2026-05-05 15:39 49.34793 12.64012 25821 ft 467 kts 85°
2026-05-05 15:39 49.34894 12.69008 26113 ft 469 kts 91°
2026-05-05 15:39 49.34576 12.73994 26369 ft 472 kts 100°
2026-05-05 15:40 49.33739 12.78870 26627 ft 475 kts 110°
2026-05-05 15:40 49.32353 12.83464 26900 ft 476 kts 120°
2026-05-05 15:40 49.30472 12.87564 27216 ft 477 kts 130°
2026-05-05 15:40 49.28335 12.91462 27525 ft 479 kts 130°
2026-05-05 15:41 49.26181 12.95363 27821 ft 481 kts 130°
2026-05-05 15:41 49.23995 12.99255 28108 ft 483 kts 131°
2026-05-05 15:41 49.21782 13.03142 28358 ft 486 kts 133°
2026-05-05 15:41 49.19422 13.06846 28614 ft 488 kts 135°
2026-05-05 15:42 49.17011 13.10523 28881 ft 490 kts 135°
2026-05-05 15:42 49.14581 13.14185 29130 ft 492 kts 135°
2026-05-05 15:42 49.12129 13.17856 29343 ft 495 kts 136°
2026-05-05 15:42 49.09667 13.21537 29561 ft 497 kts 136°
2026-05-05 15:43 49.07192 13.25224 29860 ft 498 kts 136°
2026-05-05 15:43 49.04708 13.28917 30129 ft 499 kts 136°
2026-05-05 15:43 49.02218 13.32615 30390 ft 501 kts 136°
2026-05-05 15:43 48.99725 13.36315 30753 ft 500 kts 136°
2026-05-05 15:44 48.97235 13.40010 31081 ft 500 kts 136°
2026-05-05 15:44 48.94877 13.43907 31368 ft 501 kts 129°
2026-05-05 15:44 48.92888 13.48242 31745 ft 499 kts 120°
2026-05-05 15:44 48.91357 13.52975 32076 ft 499 kts 111°
2026-05-05 15:45 48.90355 13.58007 32386 ft 499 kts 101°
2026-05-05 15:45 48.89918 13.63222 32745 ft 497 kts 92°
2026-05-05 15:45 48.89830 13.68471 33083 ft 496 kts 90°
2026-05-05 15:45 48.89842 13.73712 33426 ft 496 kts 89°
2026-05-05 15:46 48.89896 13.78946 33756 ft 495 kts 89°
2026-05-05 15:46 48.89955 13.84164 34102 ft 494 kts 89°
2026-05-05 15:46 48.90006 13.89373 34432 ft 493 kts 89°
2026-05-05 15:46 48.90043 13.94577 34761 ft 492 kts 89°
2026-05-05 15:47 48.90068 13.99774 35041 ft 492 kts 90°
2026-05-05 15:47 48.90079 14.03216 35238 ft 492 kts 90°
2026-05-05 15:47 48.90094 14.10173 35636 ft 491 kts 90°
2026-05-05 15:47 48.90100 14.15354 35943 ft 490 kts 90°
2026-05-05 15:48 48.90103 14.20531 36256 ft 489 kts 90°
2026-05-05 15:48 48.90104 14.25694 36524 ft 489 kts 90°
2026-05-05 15:48 48.90104 14.30796 36797 ft 488 kts 90°
2026-05-05 15:48 48.90101 14.36027 36979 ft 489 kts 90°
2026-05-05 15:49 48.90097 14.41148 37000 ft 494 kts 90°
2026-05-05 15:49 48.90082 14.51706 36998 ft 504 kts 90°
2026-05-05 15:50 48.90056 14.62415 36999 ft 509 kts 90°
2026-05-05 15:50 48.90020 14.73161 37000 ft 508 kts 90°
2026-05-05 15:51 48.89974 14.83898 37000 ft 508 kts 90°
2026-05-05 15:51 48.89919 14.94634 37000 ft 508 kts 90°
2026-05-05 15:52 48.89796 15.05372 36998 ft 508 kts 94°
2026-05-05 15:52 48.88255 15.15800 37000 ft 508 kts 112°
2026-05-05 15:53 48.85256 15.25521 37000 ft 508 kts 117°
2026-05-05 15:53 48.82006 15.35043 37000 ft 508 kts 117°
2026-05-05 15:54 48.78730 15.44548 37000 ft 508 kts 117°
2026-05-05 15:54 48.75476 15.54061 37000 ft 508 kts 117°
2026-05-05 15:55 48.72232 15.63570 37000 ft 508 kts 117°
2026-05-05 15:55 48.69004 15.73007 37000 ft 508 kts 117°
2026-05-05 15:56 48.65749 15.82485 37000 ft 507 kts 117°
2026-05-05 15:56 48.62490 15.91936 37000 ft 506 kts 117°
2026-05-05 15:57 48.59226 16.01365 37000 ft 506 kts 117°
2026-05-05 15:57 48.55956 16.10779 37000 ft 506 kts 118°
2026-05-05 15:58 48.52674 16.20190 37000 ft 506 kts 118°
2026-05-05 15:58 48.49388 16.29582 37000 ft 506 kts 118°
2026-05-05 15:59 48.46095 16.38958 37000 ft 506 kts 118°
2026-05-05 15:59 48.42795 16.48323 37000 ft 506 kts 118°
2026-05-05 16:00 48.39485 16.57679 37000 ft 506 kts 118°
2026-05-05 16:00 48.36170 16.67018 37000 ft 506 kts 118°
2026-05-05 16:01 48.32855 16.76324 37000 ft 505 kts 118°
2026-05-05 16:01 48.29528 16.85629 37000 ft 505 kts 118°
2026-05-05 16:02 48.26020 16.94785 37001 ft 505 kts 123°
2026-05-05 16:02 48.22175 17.03609 37000 ft 505 kts 123°
2026-05-05 16:03 48.18263 17.12371 37000 ft 506 kts 124°
2026-05-05 16:03 48.14342 17.21114 37000 ft 505 kts 124°
2026-05-05 16:04 48.10425 17.29840 37000 ft 505 kts 124°
2026-05-05 16:04 48.06528 17.38505 37000 ft 505 kts 124°
2026-05-05 16:05 48.02602 17.47210 37000 ft 505 kts 124°
2026-05-05 16:05 47.98667 17.55907 37000 ft 505 kts 124°
2026-05-05 16:06 47.94729 17.64582 37000 ft 505 kts 124°
2026-05-05 16:06 47.90782 17.73249 37000 ft 505 kts 124°
2026-05-05 16:07 47.87497 17.80441 37000 ft 505 kts 124°
2026-05-05 16:07 47.83538 17.89084 37000 ft 505 kts 124°
2026-05-05 16:08 47.79570 17.97717 37000 ft 505 kts 124°
2026-05-05 16:08 47.75707 18.06433 37001 ft 505 kts 118°
2026-05-05 16:09 47.72472 18.15687 37000 ft 505 kts 116°
2026-05-05 16:09 47.69362 18.25036 37000 ft 505 kts 116°
2026-05-05 16:10 47.66279 18.34335 37000 ft 505 kts 116°
2026-05-05 16:10 47.63156 18.43679 36999 ft 506 kts 116°
2026-05-05 16:11 47.60011 18.53023 37000 ft 506 kts 116°
2026-05-05 16:12 47.53700 18.71659 37000 ft 506 kts 117°
2026-05-05 16:13 47.45774 18.94881 37000 ft 506 kts 117°
2026-05-05 16:13 47.42592 19.04146 37000 ft 505 kts 117°
2026-05-05 16:14 47.36232 19.22567 37000 ft 505 kts 117°
2026-05-05 16:15 47.29824 19.40995 37000 ft 505 kts 117°
2026-05-05 16:16 47.23385 19.59383 37000 ft 505 kts 117°
2026-05-05 16:17 47.18532 19.73158 37000 ft 505 kts 117°
2026-05-05 16:18 47.13670 19.86888 37000 ft 505 kts 117°
2026-05-05 16:19 47.08791 20.00594 37000 ft 505 kts 117°
2026-05-05 16:19 47.03897 20.14271 37000 ft 505 kts 118°
2026-05-05 16:20 46.97344 20.32472 37000 ft 505 kts 118°
2026-05-05 16:22 46.89114 20.55159 37000 ft 505 kts 118°
2026-05-05 16:23 46.82498 20.73258 37000 ft 505 kts 118°
2026-05-05 16:23 46.77517 20.86802 37000 ft 505 kts 118°
2026-05-05 16:24 46.74189 20.95814 37000 ft 505 kts 118°
2026-05-05 16:25 46.69203 21.09260 37000 ft 505 kts 118°
2026-05-05 16:25 46.64180 21.22738 37000 ft 505 kts 118°
2026-05-05 16:26 46.57460 21.40664 37000 ft 505 kts 118°
2026-05-05 16:27 46.53516 21.49079 37000 ft 504 kts 129°
2026-05-05 16:27 46.49040 21.56916 36999 ft 505 kts 127°
2026-05-05 16:28 46.45081 21.65251 37002 ft 494 kts 123°
2026-05-05 16:28 46.41395 21.73539 37002 ft 488 kts 122°
2026-05-05 16:29 46.37725 21.81843 36999 ft 490 kts 123°
2026-05-05 16:29 46.34031 21.90132 37000 ft 490 kts 123°
2026-05-05 16:30 46.30318 21.98405 37000 ft 491 kts 123°
2026-05-05 16:30 46.26586 22.06685 36999 ft 492 kts 123°
2026-05-05 16:31 46.22843 22.14968 37000 ft 492 kts 123°
2026-05-05 16:31 46.19091 22.23247 36999 ft 494 kts 123°
2026-05-05 16:32 46.15325 22.31534 37000 ft 494 kts 123°
2026-05-05 16:32 46.11552 22.39812 37001 ft 493 kts 123°
2026-05-05 16:33 46.07781 22.48061 37000 ft 492 kts 123°
2026-05-05 16:33 46.04008 22.56289 37000 ft 492 kts 123°
2026-05-05 16:34 46.00226 22.64514 37000 ft 493 kts 123°
2026-05-05 16:34 45.96441 22.72722 37000 ft 492 kts 123°
2026-05-05 16:35 45.92656 22.80905 37000 ft 491 kts 123°
2026-05-05 16:35 45.88866 22.89073 37000 ft 491 kts 124°
2026-05-05 16:36 45.85098 22.97173 37000 ft 491 kts 124°
2026-05-05 16:36 45.81299 23.05315 37000 ft 491 kts 124°
2026-05-05 16:37 45.77502 23.13431 37000 ft 492 kts 124°
2026-05-05 16:37 45.73678 23.21578 37000 ft 492 kts 124°
2026-05-05 16:38 45.69847 23.29720 36999 ft 495 kts 124°
2026-05-05 16:38 45.65988 23.37895 36998 ft 497 kts 124°
2026-05-05 16:39 45.62100 23.46109 36999 ft 500 kts 124°
2026-05-05 16:39 45.58192 23.54341 37000 ft 502 kts 124°
2026-05-05 16:40 45.54279 23.62560 37001 ft 500 kts 124°
2026-05-05 16:40 45.50366 23.70755 37000 ft 500 kts 124°
2026-05-05 16:41 45.46435 23.78964 37000 ft 502 kts 124°
2026-05-05 16:41 45.42503 23.87152 37001 ft 501 kts 124°
2026-05-05 16:42 45.38576 23.95304 37002 ft 498 kts 124°
2026-05-05 16:42 45.34669 24.03392 37002 ft 495 kts 124°
2026-05-05 16:43 45.30765 24.11453 37000 ft 498 kts 124°
2026-05-05 16:43 45.26824 24.19566 37001 ft 498 kts 124°
2026-05-05 16:44 45.22895 24.27632 37001 ft 496 kts 124°
2026-05-05 16:44 45.18976 24.35654 37001 ft 494 kts 125°
2026-05-05 16:45 45.15068 24.43631 37000 ft 492 kts 125°
2026-05-05 16:45 45.11158 24.51590 37000 ft 493 kts 125°
2026-05-05 16:46 45.07239 24.59546 37000 ft 493 kts 125°
2026-05-05 16:46 45.03311 24.67496 37000 ft 493 kts 125°
2026-05-05 16:47 44.99383 24.75426 37000 ft 492 kts 125°
2026-05-05 16:47 44.95474 24.83295 37000 ft 492 kts 125°
2026-05-05 16:48 44.91511 24.91252 37000 ft 492 kts 125°
2026-05-05 16:48 44.87595 24.99092 37000 ft 492 kts 125°
2026-05-05 16:49 44.83646 25.06975 37000 ft 492 kts 125°
2026-05-05 16:49 44.79717 25.14800 37023 ft 480 kts 125°
2026-05-05 16:50 44.77799 25.18611 37214 ft 473 kts 125°
2026-05-05 16:50 44.75897 25.22385 37209 ft 476 kts 125°
2026-05-05 16:50 44.72013 25.30079 37231 ft 488 kts 126°
2026-05-05 16:51 44.70045 25.33968 37473 ft 488 kts 126°
2026-05-05 16:51 44.68080 25.37845 37770 ft 486 kts 126°
2026-05-05 16:51 44.66119 25.41711 38035 ft 486 kts 126°
2026-05-05 16:51 44.64156 25.45576 38262 ft 486 kts 126°
2026-05-05 16:52 44.62191 25.49439 38473 ft 486 kts 126°
2026-05-05 16:52 44.60224 25.53301 38687 ft 486 kts 126°
2026-05-05 16:52 44.58257 25.57157 38891 ft 486 kts 126°
2026-05-05 16:52 44.56290 25.61008 39089 ft 486 kts 126°
2026-05-05 16:53 44.54321 25.64860 39267 ft 486 kts 126°
2026-05-05 16:53 44.53017 25.67406 39399 ft 486 kts 126°
2026-05-05 16:53 44.51047 25.71249 39579 ft 486 kts 126°
2026-05-05 16:53 44.49077 25.75089 39744 ft 486 kts 126°
2026-05-05 16:54 44.47099 25.78938 39907 ft 486 kts 126°
2026-05-05 16:54 44.44485 25.84017 40114 ft 486 kts 126°
2026-05-05 16:54 44.41173 25.90440 40358 ft 486 kts 126°
2026-05-05 16:55 44.39195 25.94268 40511 ft 486 kts 126°
2026-05-05 16:55 44.37215 25.98096 40633 ft 486 kts 126°
2026-05-05 16:55 44.35234 26.01921 40766 ft 486 kts 126°
2026-05-05 16:55 44.33250 26.05745 40895 ft 486 kts 126°
2026-05-05 16:56 44.31269 26.09559 41002 ft 486 kts 126°
2026-05-05 16:56 44.29285 26.13375 41102 ft 486 kts 126°
2026-05-05 16:56 44.27299 26.17190 41228 ft 486 kts 126°
2026-05-05 16:56 44.25310 26.21004 41336 ft 486 kts 126°
2026-05-05 16:57 44.21333 26.28616 41531 ft 486 kts 126°
2026-05-05 16:57 44.17350 26.36221 41712 ft 486 kts 126°
2026-05-05 16:58 44.13359 26.43820 41870 ft 486 kts 126°
2026-05-05 16:58 44.09363 26.51410 42034 ft 486 kts 126°
2026-05-05 16:59 44.05364 26.58984 42181 ft 486 kts 126°
2026-05-05 16:59 44.01390 26.66492 42305 ft 486 kts 126°
2026-05-05 17:00 43.97375 26.74059 42406 ft 486 kts 126°
2026-05-05 17:00 43.93357 26.81611 42524 ft 486 kts 127°
2026-05-05 17:01 43.89330 26.89160 42634 ft 487 kts 127°
2026-05-05 17:01 43.87327 26.92907 42385 ft 481 kts 127°
2026-05-05 17:01 43.85332 26.96635 41583 ft 484 kts 127°
2026-05-05 17:02 43.83313 27.00403 40675 ft 489 kts 127°
2026-05-05 17:02 43.81280 27.04193 39898 ft 491 kts 127°
2026-05-05 17:02 43.79240 27.07990 39204 ft 492 kts 127°
2026-05-05 17:02 43.77199 27.11784 38485 ft 492 kts 127°
2026-05-05 17:03 43.75152 27.15585 37784 ft 492 kts 127°
2026-05-05 17:03 43.73109 27.19373 37234 ft 490 kts 127°
2026-05-05 17:03 43.71071 27.23148 36958 ft 490 kts 127°
2026-05-05 17:03 43.69031 27.26920 36983 ft 491 kts 127°
2026-05-05 17:04 43.64931 27.34488 37000 ft 491 kts 127°
2026-05-05 17:04 43.60829 27.42039 37000 ft 491 kts 127°
2026-05-05 17:05 43.56728 27.49571 37000 ft 491 kts 127°
2026-05-05 17:05 43.52618 27.57098 37000 ft 491 kts 127°
2026-05-05 17:06 43.48504 27.64614 37000 ft 491 kts 127°
2026-05-05 17:06 43.44387 27.72117 37000 ft 491 kts 127°
2026-05-05 17:07 43.40262 27.79615 37000 ft 492 kts 127°
2026-05-05 17:07 43.36130 27.87107 37000 ft 492 kts 127°
2026-05-05 17:08 43.31994 27.94587 37000 ft 491 kts 127°
2026-05-05 17:08 43.27854 28.02054 37000 ft 491 kts 127°
2026-05-05 17:09 43.23714 28.09503 37000 ft 490 kts 127°
2026-05-05 17:09 43.19608 28.16874 37000 ft 489 kts 127°
2026-05-05 17:10 43.15471 28.24279 37000 ft 489 kts 127°
2026-05-05 17:10 43.11328 28.31677 37000 ft 489 kts 128°
2026-05-05 17:11 43.07180 28.39066 37000 ft 489 kts 128°
2026-05-05 17:11 43.03030 28.46440 37000 ft 489 kts 128°
2026-05-05 17:12 42.98871 28.53813 37000 ft 489 kts 128°
2026-05-05 17:12 42.94710 28.61169 37000 ft 489 kts 128°
2026-05-05 17:13 42.90544 28.68517 37000 ft 489 kts 128°
2026-05-05 17:13 42.86374 28.75854 37000 ft 489 kts 128°
2026-05-05 17:14 42.82228 28.83130 37000 ft 489 kts 128°
2026-05-05 17:14 42.78049 28.90445 37000 ft 489 kts 128°
2026-05-05 17:15 42.73864 28.97754 37000 ft 489 kts 128°
2026-05-05 17:15 42.69673 29.05055 37000 ft 489 kts 128°
2026-05-05 17:16 42.65480 29.12342 37000 ft 489 kts 128°
2026-05-05 17:16 42.61281 29.19621 37000 ft 489 kts 128°
2026-05-05 17:17 42.57079 29.26888 37000 ft 489 kts 128°
2026-05-05 17:17 42.52870 29.34149 37000 ft 489 kts 128°
2026-05-05 17:18 42.48659 29.41397 36991 ft 489 kts 128°
2026-05-05 17:18 42.44442 29.48635 37000 ft 489 kts 128°
2026-05-05 17:19 42.40223 29.55862 37000 ft 489 kts 128°
2026-05-05 17:19 42.36409 29.63473 37001 ft 489 kts 116°
2026-05-05 17:20 42.33808 29.71973 37000 ft 489 kts 109°
2026-05-05 17:20 42.31641 29.80692 37000 ft 490 kts 108°
2026-05-05 17:21 42.29520 29.89371 37000 ft 490 kts 108°
2026-05-05 17:22 42.26220 30.02423 37000 ft 490 kts 109°
2026-05-05 17:22 42.23985 30.11110 37000 ft 490 kts 109°
2026-05-05 17:23 42.21744 30.19784 37000 ft 490 kts 109°
2026-05-05 17:23 42.19498 30.28455 37000 ft 490 kts 109°
2026-05-05 17:24 42.17244 30.37130 37000 ft 490 kts 109°
2026-05-05 17:24 42.14985 30.45793 37000 ft 490 kts 109°
2026-05-05 17:25 42.12721 30.54445 37000 ft 490 kts 109°
2026-05-05 17:25 42.10449 30.63096 37000 ft 490 kts 109°
2026-05-05 17:26 42.08169 30.71746 37000 ft 490 kts 109°
2026-05-05 17:26 42.05887 30.80373 37000 ft 490 kts 110°
2026-05-05 17:27 42.03597 30.89003 37000 ft 490 kts 110°
2026-05-05 17:27 42.01300 30.97626 37000 ft 490 kts 110°
2026-05-05 17:28 41.98997 31.06249 37000 ft 490 kts 110°
2026-05-05 17:28 41.96693 31.14862 37000 ft 490 kts 110°
2026-05-05 17:29 41.94396 31.23412 37000 ft 490 kts 110°
2026-05-05 17:29 41.92079 31.32012 37000 ft 490 kts 110°
2026-05-05 17:30 41.89756 31.40605 37000 ft 490 kts 110°
2026-05-05 17:30 41.87426 31.49190 37000 ft 490 kts 110°
2026-05-05 17:31 41.85089 31.57773 37000 ft 490 kts 110°
2026-05-05 17:31 41.82730 31.66411 37002 ft 490 kts 110°
2026-05-05 17:32 41.80398 31.74921 36994 ft 490 kts 110°
2026-05-05 17:32 41.78039 31.83491 36988 ft 490 kts 110°
2026-05-05 17:33 41.75643 31.92092 37000 ft 490 kts 110°